Tracking 20945 objects as of 8-Jul-2020
HD Live streaming from Space Station
objects crossing your sky now

OPS 5712 (P/L 153)

Track OPS 5712 (P/L 153) now!
10-day predictions
OPS 5712 (P/L 153) is classified as:


NORAD ID: 2874
Int'l Code: 1967-053H
Perigee: 909.4 km
Apogee: 917.8 km
Inclination: 70.0 °
Period: 103.1 minutes
Semi major axis: 7284 km
RCS: 0.6915 m2 (medium)
Launch date: May 31, 1967
Source: United States (US)
Launch site: AIR FORCE WESTERN TEST RANGE (AFWTR)
aabbcc
Your satellite tracking list
Your tracking list is empty




NASA's NSSDC Master Catalog

Two Line Element Set (TLE):
1  2874U 67053H   20189.90459818 -.00000024 +00000-0 +20815-4 0  9993
2  2874 069.9748 084.8642 0005765 150.6663 209.4767 13.96350227703810
Source of the keplerian elements: AFSPC